GW5315 Weather Reports


Display with metric or nautical units.
time (UTC)temp
F
wind
direction
speed
MPH
gust
MPH
rain 1hr
in
rain 24hr
in
rain mn
in
humidity
%
barometer
mb
20260510225252 82 163 1.0 1.0 0.00 0.00 0.00 35 1016.6
20260510224748 82 218 1.0 1.0 0.00 0.00 0.00 35 1016.6
20260510224244 82 196 1.0 2.0 0.00 0.00 0.00 34 1016.6
20260510223742 82 263 3.0 5.0 0.00 0.00 0.00 32 1016.6
20260510223239 82 201 1.0 1.0 0.00 0.00 0.00 31 1016.7
20260510222737 82 208 3.0 3.0 0.00 0.00 0.00 33 1016.8
20260510222233 82 236 2.0 2.0 0.00 0.00 0.00 31 1016.5
20260510221728 82 254 2.0 3.0 0.00 0.00 0.00 33 1016.9
20260510221226 82 190 2.0 2.0 0.00 0.00 0.00 33 1016.5
20260510220722 82 292 1.0 2.0 0.00 0.00 0.00 34 1016.6
20260510220217 82 130 3.0 5.0 0.00 0.00 0.00 33 1016.7
20260510215715 82 152 3.0 3.0 0.00 0.00 0.00 32 1016.6
20260510215213 82 231 4.0 5.0 0.00 0.00 0.00 33 1016.7
20260510214709 82 208 4.0 5.0 0.00 0.00 0.00 31 1016.6
20260510214207 83 193 2.0 2.0 0.00 0.00 0.00 34 1016.7
20260510213703 82 211 2.0 2.0 0.00 0.00 0.00 32 1016.7
20260510213200 83 307 3.0 3.0 0.00 0.00 0.00 30 1016.6
20260510212656 83 193 4.0 5.0 0.00 0.00 0.00 33 1016.5
20260510212154 82 77 2.0 3.0 0.00 0.00 0.00 31 1016.7
20260510211650 82 302 3.0 3.0 0.00 0.00 0.00 36 1016.6
20260510211144 84 238 3.0 3.0 0.00 0.00 0.00 31 1016.5
20260510210641 83 29 2.0 3.0 0.00 0.00 0.00 34 1016.7
20260510210136 82 333 3.0 5.0 0.00 0.00 0.00 31 1016.7
20260510205635 83 261 3.0 5.0 0.00 0.00 0.00 29 1016.7
20260510205132 83 334 2.0 3.0 0.00 0.00 0.00 31 1016.8
20260510204628 82 196 1.0 1.0 0.00 0.00 0.00 30 1016.6
20260510204125 81 249 1.0 1.0 0.00 0.00 0.00 31 1016.7
20260510203621 82 280 3.0 5.0 0.00 0.00 0.00 31 1016.7
20260510203119 82 244 3.0 3.0 0.00 0.00 0.00 30 1016.7
20260510202618 82 124 1.0 2.0 0.00 0.00 0.00 30 1016.9
20260510202114 82 294 2.0 3.0 0.00 0.00 0.00 31 1017.0
20260510201611 82 227 3.0 3.0 0.00 0.00 0.00 32 1016.8
20260510201108 83 230 2.0 3.0 0.00 0.00 0.00 29 1017.0
20260510200604 83 208 4.0 5.0 0.00 0.00 0.00 31 1017.1
20260510195600 82 265 4.0 6.0 0.00 0.00 0.00 34 1017.0
20260510195055 82 125 1.0 1.0 0.00 0.00 0.00 34 1016.9
20260510194550 83 107 1.0 1.0 0.00 0.00 0.00 32 1016.9
20260510194048 82 254 6.0 7.0 0.00 0.00 0.00 32 1017.1
20260510193547 83 318 2.0 5.0 0.00 0.00 0.00 32 1016.9
20260510193043 82 237 1.0 2.0 0.00 0.00 0.00 31 1017.1
20260510192543 82 188 2.0 2.0 0.00 0.00 0.00 37 1017.2
20260510192040 82 217 2.0 2.0 0.00 0.00 0.00 36 1017.1
20260510191536 82 147 1.0 1.0 0.00 0.00 0.00 35 1017.0
20260510191032 82 309 2.0 2.0 0.00 0.00 0.00 31 1017.3
20260510190530 82 218 1.0 2.0 0.00 0.00 0.00 33 1017.2
20260510190028 82 212 2.0 5.0 0.00 0.00 0.00 35 1017.2
20260510185524 81 14 3.0 3.0 0.00 0.00 0.00 35 1017.3
20260510185022 82 255 3.0 3.0 0.00 0.00 0.00 32 1017.4
20260510184519 81 62 3.0 3.0 0.00 0.00 0.00 31 1017.1
20260510184014 81 30 1.0 2.0 0.00 0.00 0.00 35 1017.3
20260510183509 82 216 2.0 2.0 0.00 0.00 0.00 35 1017.4
20260510183005 81 119 1.0 1.0 0.00 0.00 0.00 33 1017.4
20260510182502 81 171 2.0 2.0 0.00 0.00 0.00 33 1017.7
20260510181956 81 244 4.0 5.0 0.00 0.00 0.00 34 1017.3
20260510181455 81 152 0.0 0.0 0.00 0.00 0.00 34 1017.3
20260510180950 81 174 1.0 2.0 0.00 0.00 0.00 38 1017.4
20260510180448 81 157 1.0 1.0 0.00 0.00 0.00 37 1017.5
20260510175945 82 301 2.0 2.0 0.00 0.00 0.00 35 1017.7
20260510175441 80 54 3.0 3.0 0.00 0.00 0.00 36 1017.6
20260510174937 80 308 4.0 6.0 0.00 0.00 0.00 36 1017.6
20260510174435 81 273 2.0 3.0 0.00 0.00 0.00 38 1017.6
20260510173932 81 121 0.0 1.0 0.00 0.00 0.00 37 1017.7
20260510173427 80 91 2.0 2.0 0.00 0.00 0.00 40 1017.6
20260510172924 79 144 1.0 1.0 0.00 0.00 0.00 37 1017.9
20260510172420 79 174 1.0 2.0 0.00 0.00 0.00 36 1017.9
20260510171916 79 144 1.0 1.0 0.00 0.00 0.00 39 1017.9
20260510171414 78 63 0.0 1.0 0.00 0.00 0.00 41 1018.1
20260510170910 79 83 2.0 5.0 0.00 0.00 0.00 39 1018.0
20260510170407 78 342 2.0 2.0 0.00 0.00 0.00 41 1018.1
20260510165902 79 99 2.0 2.0 0.00 0.00 0.00 44 1017.8
20260510165358 79 76 0.0 0.0 0.00 0.00 0.00 41 1018.1
20260510164856 79 160 0.0 0.0 0.00 0.00 0.00 40 1018.0
20260510164353 79 225 3.0 5.0 0.00 0.00 0.00 43 1018.2
20260510163852 79 22 4.0 5.0 0.00 0.00 0.00 44 1018.2
20260510163349 79 216 2.0 2.0 0.00 0.00 0.00 41 1018.2
20260510162843 78 214 1.0 1.0 0.00 0.00 0.00 39 1018.3
20260510162341 79 315 3.0 3.0 0.00 0.00 0.00 45 1018.2
20260510161836 78 57 1.0 2.0 0.00 0.00 0.00 43 1018.2
20260510161332 78 147 1.0 1.0 0.00 0.00 0.00 43 1018.2
20260510160830 78 136 0.0 1.0 0.00 0.00 0.00 45 1018.3
20260510160327 78 84 2.0 2.0 0.00 0.00 0.00 45 1018.3
20260510155826 78 113 2.0 3.0 0.00 0.00 0.00 46 1018.2
20260510155323 78 163 0.0 0.0 0.00 0.00 0.00 46 1018.5
20260510154819 77 355 3.0 3.0 0.00 0.00 0.00 47 1018.5
20260510154315 78 116 0.0 0.0 0.00 0.00 0.00 45 1018.3
20260510153809 77 92 2.0 2.0 0.00 0.00 0.00 47 1018.3
20260510153306 77 80 2.0 2.0 0.00 0.00 0.00 44 1018.2
20260510152803 77 288 2.0 2.0 0.00 0.00 0.00 47 1018.3
20260510152259 76 345 3.0 3.0 0.00 0.00 0.00 47 1018.3
20260510151756 76 154 1.0 2.0 0.00 0.00 0.00 46 1018.1
20260510151254 76 311 5.0 6.0 0.00 0.00 0.00 48 1018.2
20260510150749 77 326 2.0 5.0 0.00 0.00 0.00 49 1018.4
20260510150245 76 313 3.0 5.0 0.00 0.00 0.00 51 1018.4
20260510145742 75 276 3.0 3.0 0.00 0.00 0.00 51 1018.4
20260510145238 77 327 3.0 3.0 0.00 0.00 0.00 49 1018.3
20260510144734 76 65 2.0 2.0 0.00 0.00 0.00 49 1018.4
20260510144232 75 80 2.0 2.0 0.00 0.00 0.00 48 1018.6
20260510143720 75 321 4.0 5.0 0.00 0.00 0.00 52 1018.5
20260510143217 75 285 6.0 11.0 0.00 0.00 0.00 53 1018.3
20260510142714 73 334 4.0 5.0 0.00 0.00 0.00 54 1018.3
20260510142210 74 349 5.0 6.0 0.00 0.00 0.00 56 1018.4
20260510141707 74 321 5.0 7.0 0.00 0.00 0.00 57 1018.3
20260510141206 75 322 3.0 6.0 0.00 0.00 0.00 58 1018.1
20260510140702 76 58 1.0 1.0 0.00 0.00 0.00 59 1018.2
20260510140201 74 101 1.0 1.0 0.00 0.00 0.00 58 1018.4
20260510135656 74 44 3.0 3.0 0.00 0.00 0.00 61 1018.4
20260510135152 73 75 1.0 2.0 0.00 0.00 0.00 64 1018.2
20260510134649 73 326 6.0 9.0 0.00 0.00 0.00 64 1018.2
20260510134147 72 293 2.0 2.0 0.00 0.00 0.00 69 1018.2
20260510133643 73 308 4.0 6.0 0.00 0.00 0.00 69 1018.3
20260510133138 72 80 0.0 1.0 0.00 0.00 0.00 71 1018.3
20260510132635 71 122 0.0 0.0 0.00 0.00 0.00 73 1018.2
20260510132132 70 339 2.0 2.0 0.00 0.00 0.00 74 1018.2
20260510131630 71 282 2.0 2.0 0.00 0.00 0.00 76 1018.2
20260510131127 72 132 0.0 1.0 0.00 0.00 0.00 74 1018.3
20260510130623 70 95 1.0 1.0 0.00 0.00 0.00 79 1018.3
20260510130121 69 118 1.0 1.0 0.00 0.00 0.00 79 1018.1
20260510125617 68 5 1.0 1.0 0.00 0.00 0.00 83 1018.1
20260510125113 66 330 2.0 2.0 0.00 0.00 0.00 87 1018.1
20260510124610 65 142 0.0 1.0 0.00 0.00 0.00 97 1018.2
20260510124107 64 97 0.0 1.0 0.00 0.00 0.00 99 1018.1
20260510123602 62 94 0.0 0.0 0.00 0.00 0.00 99 1017.9
20260510123059 63 102 3.0 5.0 0.00 0.00 0.00 99 1017.7
20260510122554 62 113 0.0 0.0 0.00 0.00 0.00 99 1017.9
20260510122051 61 115 1.0 1.0 0.00 0.00 0.00 99 1017.9
20260510121548 60 64 1.0 2.0 0.00 0.00 0.00 99 1017.8
20260510121045 61 89 1.0 1.0 0.00 0.00 0.00 99 1017.6
20260510120543 62 134 0.0 0.0 0.00 0.00 0.00 99 1017.4
20260510120038 62 129 0.0 0.0 0.00 0.00 0.00 99 1017.3
20260510115535 60 137 0.0 0.0 0.00 0.00 0.00 99 1017.2
20260510115032 60 137 0.0 0.0 0.00 0.00 0.00 99 1017.2
20260510114528 59 141 0.0 0.0 0.00 0.00 0.00 99 1017.1
20260510114024 59 144 0.0 0.0 0.00 0.00 0.00 99 1017.2
20260510113519 58 148 0.0 0.0 0.00 0.00 0.00 99 1017.1
20260510113018 58 159 0.0 0.0 0.00 0.00 0.00 99 1017.0
20260510112514 58 158 0.0 0.0 0.00 0.00 0.00 99 1017.0
20260510112010 58 158 0.0 0.0 0.00 0.00 0.00 99 1017.1
20260510111507 57 158 0.0 0.0 0.00 0.00 0.00 99 1017.0
20260510111003 57 158 0.0 0.0 0.00 0.00 0.00 99 1016.9
20260510110459 56 158 0.0 0.0 0.00 0.00 0.00 99 1016.9
20260510105955 56 158 0.0 0.0 0.00 0.00 0.00 99 1016.7
20260510105450 56 159 0.0 0.0 0.00 0.00 0.00 99 1016.7
20260510104946 56 158 0.0 0.0 0.00 0.00 0.00 99 1016.3
20260510104443 56 159 0.0 0.0 0.00 0.00 0.00 99 1016.6
20260510103939 56 160 0.0 0.0 0.00 0.00 0.00 99 1016.2
20260510103437 56 160 0.0 0.0 0.00 0.00 0.00 99 1016.4
20260510102938 56 160 0.0 0.0 0.00 0.00 0.00 99 1016.2
20260510102434 56 160 0.0 0.0 0.00 0.00 0.00 99 1016.1
20260510101931 55 160 0.0 0.0 0.00 0.00 0.00 99 1016.1
20260510101428 55 159 0.0 0.0 0.00 0.00 0.00 99 1016.1
20260510100926 56 160 0.0 0.0 0.00 0.00 0.00 99 1015.9
20260510100423 56 159 0.0 0.0 0.00 0.00 0.00 99 1015.9
20260510095919 56 159 0.0 0.0 0.00 0.00 0.00 99 1015.6
20260510095414 56 160 0.0 0.0 0.00 0.00 0.00 99 1015.8
20260510094913 56 160 0.0 0.0 0.00 0.00 0.00 99 1015.6
20260510094408 56 160 0.0 0.0 0.00 0.00 0.00 99 1015.6
20260510093905 56 160 0.0 0.0 0.00 0.00 0.00 99 1015.4
20260510093401 56 160 0.0 0.0 0.00 0.00 0.00 99 1015.6
20260510092858 56 169 0.0 0.0 0.00 0.00 0.00 99 1015.4
20260510092355 56 146 0.0 0.0 0.00 0.00 0.00 99 1015.4
20260510091855 56 144 0.0 0.0 0.00 0.00 0.00 99 1015.1
20260510091352 57 120 0.0 0.0 0.00 0.00 0.00 99 1015.3
20260510090849 57 119 0.0 0.0 0.00 0.00 0.00 99 1014.9
20260510090345 57 135 0.0 0.0 0.00 0.00 0.00 99 1015.1
20260510085841 57 136 0.0 0.0 0.00 0.00 0.00 99 1015.1
20260510085336 57 136 0.0 0.0 0.00 0.00 0.00 99 1015.2
20260510084832 57 135 0.0 0.0 0.00 0.00 0.00 99 1015.0
20260510084329 57 135 0.0 0.0 0.00 0.00 0.00 99 1014.8
20260510083826 57 135 0.0 0.0 0.00 0.00 0.00 99 1014.7
20260510083317 57 135 0.0 0.0 0.00 0.00 0.00 99 1014.7
20260510082812 58 135 0.0 0.0 0.00 0.00 0.00 99 1014.6
20260510082310 57 135 0.0 0.0 0.00 0.00 0.00 99 1014.5
20260510081809 58 136 0.0 0.0 0.00 0.00 0.00 99 1014.7
20260510081305 58 135 0.0 0.0 0.00 0.00 0.00 99 1014.4
20260510080801 58 137 0.0 0.0 0.00 0.00 0.00 99 1014.5
20260510080256 58 137 0.0 0.0 0.00 0.00 0.00 99 1014.4
20260510075753 58 137 0.0 0.0 0.00 0.00 0.00 99 1014.7
20260510075251 59 145 0.0 0.0 0.00 0.00 0.00 99 1014.5
20260510074748 58 156 0.0 0.0 0.00 0.00 0.00 99 1014.5
20260510074244 59 156 0.0 0.0 0.00 0.00 0.00 99 1014.5
20260510073740 59 164 0.0 0.0 0.00 0.00 0.00 99 1014.4
20260510073236 59 145 0.0 0.0 0.00 0.00 0.00 99 1014.3
20260510072732 59 144 0.0 0.0 0.00 0.00 0.00 99 1014.4
20260510072229 59 143 0.0 0.0 0.00 0.00 0.00 99 1014.4
20260510071725 59 143 0.0 0.0 0.00 0.00 0.00 99 1014.2
20260510071222 59 143 0.0 0.0 0.00 0.00 0.00 99 1014.2
20260510070720 59 143 0.0 0.0 0.00 0.00 0.00 99 1014.3
20260510070218 59 143 0.0 0.0 0.00 0.00 0.00 99 1014.0
20260510065712 59 141 0.0 0.0 0.00 0.00 0.00 99 1014.4
20260510065209 59 160 0.0 0.0 0.00 0.00 0.00 99 1014.3
20260510064705 59 160 0.0 0.0 0.00 0.00 0.00 99 1014.2
20260510064203 59 161 0.0 0.0 0.00 0.00 0.00 99 1014.4
20260510063700 59 161 0.0 0.0 0.00 0.00 0.00 99 1014.5
20260510063156 59 162 0.0 0.0 0.00 0.00 0.00 99 1014.2
20260510062652 59 134 0.0 0.0 0.00 0.00 0.00 99 1014.4
20260510062148 60 131 0.0 0.0 0.00 0.00 0.00 99 1014.6
20260510061643 59 167 0.0 0.0 0.00 0.00 0.00 99 1014.2
20260510061141 60 167 0.0 0.0 0.00 0.00 0.00 99 1014.3
20260510060637 60 167 0.0 0.0 0.00 0.00 0.00 99 1014.5
20260510060134 60 168 0.0 1.0 0.00 0.00 0.00 99 1014.2
20260510055630 60 168 0.0 0.0 0.00 0.00 0.00 99 1014.2
20260510055128 60 164 0.0 1.0 0.00 0.00 0.00 99 1014.3
20260510054623 60 127 0.0 0.0 0.00 0.00 0.00 99 1014.4
20260510054118 60 127 0.0 0.0 0.00 0.00 0.00 99 1014.3
20260510053612 60 127 0.0 0.0 0.00 0.00 0.00 99 1014.2
20260510053109 60 127 0.0 0.0 0.00 0.00 0.00 99 1014.5
20260510052606 60 127 0.0 0.0 0.00 0.00 0.00 98 1014.5
20260510052103 61 127 0.0 0.0 0.00 0.00 0.00 98 1014.3
20260510051557 60 127 0.0 0.0 0.00 0.00 0.00 98 1014.3
20260510051054 61 127 0.0 0.0 0.00 0.00 0.00 98 1014.3
20260510050552 61 127 0.0 0.0 0.00 0.00 0.00 98 1014.5
20260510050049 61 127 0.0 0.0 0.00 0.00 0.00 98 1014.5
20260510045546 61 128 0.0 0.0 0.00 0.00 0.00 97 1014.4
20260510045042 62 126 0.0 0.0 0.00 0.00 0.00 97 1014.5
20260510044539 62 162 0.0 0.0 0.00 0.00 0.00 97 1014.7
20260510044037 62 163 0.0 0.0 0.00 0.00 0.00 97 1014.3
20260510043532 62 163 0.0 0.0 0.00 0.00 0.00 97 1014.4
20260510043027 62 176 0.0 0.0 0.00 0.00 0.00 97 1014.4
20260510042522 62 167 0.0 0.0 0.00 0.00 0.00 97 1014.7
20260510042021 62 170 1.0 1.0 0.00 0.00 0.00 96 1014.5
20260510041519 62 165 1.0 1.0 0.00 0.00 0.00 96 1014.6
20260510041017 62 158 0.0 0.0 0.00 0.00 0.00 96 1014.6
20260510040513 62 157 0.0 0.0 0.00 0.00 0.00 96 1014.6
20260510040008 62 164 0.0 0.0 0.00 0.00 0.00 96 1014.5
20260510035506 62 172 1.0 1.0 0.00 0.01 0.01 96 1014.6
20260510035004 62 175 1.0 1.0 0.00 0.01 0.01 96 1014.9
20260510034504 62 161 0.0 0.0 0.00 0.01 0.01 96 1014.4
20260510033959 62 160 1.0 1.0 0.00 0.01 0.01 96 1014.7
20260510033455 62 177 0.0 0.0 0.00 0.01 0.01 97 1014.6
20260510032953 62 166 0.0 0.0 0.00 0.01 0.01 97 1015.0
20260510032450 62 170 0.0 0.0 0.00 0.01 0.01 97 1014.8
20260510031945 62 169 0.0 0.0 0.00 0.01 0.01 96 1014.7
20260510031441 62 141 0.0 0.0 0.00 0.01 0.01 96 1014.6
20260510030937 62 150 0.0 0.0 0.00 0.01 0.01 96 1014.6
20260510030432 62 161 0.0 0.0 0.00 0.01 0.01 96 1014.4
20260510025930 62 161 0.0 0.0 0.00 0.01 0.01 96 1014.5
20260510025427 62 162 0.0 0.0 0.00 0.01 0.01 96 1014.5
20260510024925 62 168 0.0 0.0 0.00 0.01 0.01 96 1014.8
20260510024420 62 157 0.0 0.0 0.00 0.01 0.01 95 1014.6
20260510023917 62 145 0.0 0.0 0.00 0.01 0.01 95 1014.6
20260510023414 62 176 0.0 0.0 0.00 0.01 0.01 95 1014.9
20260510022911 62 176 0.0 0.0 0.00 0.01 0.01 95 1014.6
20260510022410 62 176 0.0 0.0 0.00 0.01 0.01 95 1014.5
20260510021909 62 176 0.0 0.0 0.00 0.01 0.01 94 1014.1
20260510021407 62 176 0.0 0.0 0.00 0.01 0.01 94 1014.5
20260510020903 63 176 0.0 1.0 0.00 0.01 0.01 94 1014.3
20260510020358 63 176 0.0 0.0 0.00 0.01 0.01 93 1014.4
20260510015854 63 176 0.0 0.0 0.00 0.01 0.01 93 1014.3
20260510015350 63 176 0.0 0.0 0.00 0.01 0.01 93 1014.3
20260510014846 63 176 0.0 0.0 0.00 0.01 0.01 93 1014.2
20260510014343 63 178 0.0 0.0 0.00 0.01 0.01 92 1014.1
20260510013839 63 162 0.0 0.0 0.00 0.01 0.01 92 1013.8
20260510013335 64 115 0.0 0.0 0.00 0.01 0.01 91 1013.7
20260510012830 64 115 0.0 0.0 0.00 0.01 0.01 90 1014.0
20260510012329 64 132 0.0 0.0 0.00 0.01 0.01 89 1013.9
20260510011824 64 132 0.0 0.0 0.00 0.01 0.01 88 1013.8
20260510011320 65 132 0.0 0.0 0.00 0.01 0.01 87 1013.5
20260510010817 66 160 0.0 0.0 0.00 0.01 0.01 85 1013.4
20260510010314 66 154 0.0 0.0 0.00 0.01 0.01 85 1013.6
20260510005810 66 162 0.0 0.0 0.00 0.01 0.01 84 1013.5
20260510005307 67 154 1.0 1.0 0.00 0.01 0.01 84 1013.4
20260510004805 67 164 0.0 1.0 0.00 0.01 0.01 83 1013.2
20260510004302 67 157 2.0 2.0 0.00 0.01 0.01 82 1013.1
20260510003759 67 149 1.0 1.0 0.00 0.01 0.01 82 1012.9
20260510003256 68 146 0.0 0.0 0.00 0.01 0.01 82 1012.7
20260510002754 68 155 1.0 2.0 0.00 0.01 0.01 81 1012.8
20260510002252 68 213 2.0 2.0 0.00 0.01 0.01 81 1012.7
20260510001748 68 212 2.0 2.0 0.00 0.01 0.01 81 1012.5
20260510001247 68 214 2.0 2.0 0.00 0.01 0.01 80 1012.6
20260510000742 69 197 1.0 1.0 0.00 0.01 0.01 79 1012.7
20260510000241 69 173 1.0 1.0 0.00 0.01 0.01 79 1012.6
20260509235737 69 185 1.0 1.0 0.00 0.01 0.01 78 1012.3
20260509235233 69 160 1.0 1.0 0.00 0.01 0.01 78 1012.6
20260509234729 69 148 1.0 1.0 0.00 0.01 0.01 79 1012.6
20260509234227 69 225 2.0 3.0 0.00 0.01 0.01 78 1012.5
20260509233725 70 237 4.0 5.0 0.00 0.01 0.01 77 1012.5
20260509233222 70 209 5.0 6.0 0.00 0.01 0.01 77 1012.3
20260509232718 70 235 4.0 5.0 0.00 0.01 0.01 77 1012.5
20260509232215 70 213 5.0 7.0 0.00 0.01 0.01 76 1012.2
20260509231711 70 199 6.0 10.0 0.00 0.01 0.01 76 1012.4
20260509231209 70 227 5.0 6.0 0.00 0.01 0.01 76 1012.6
20260509230707 71 194 2.0 2.0 0.00 0.01 0.01 76 1012.6
20260509230203 71 220 2.0 2.0 0.00 0.01 0.01 76 1012.4
20260509225658 71 217 3.0 3.0 0.00 0.01 0.01 75 1012.4